[[{"header":{"parameterUnit":"m.s-1","parameterCategory":1,"la1":30.2991,"la2":30.254,"lo1":-89.0895,"lo2":-89.0444,"dy":0.0017,"dx":0.0017,"nx":28,"ny":28,"refTime":"2025-05-26T21:00:00:Z","depth":0,"parameterNumber":2,"parameterNumberName":"U-component_of_WINDS"},"data":[0,0,0,0,0,0,0,0,0,0,0,0,0,0,0,0,0,0,0,0,0,0,0,0,0,0,0,0,0,0,0,0,0,0,0,0,0,0,0,0,0,0,0,0,0,0,0,0,0,0,0,0,0,0,0,0,0,0,1.3495,1.3496,0,1.3574,1.3575,1.3576,1.3579,1.3579,1.3578,1.3577,1.3658,1.3661,1.3664,0,0,0,0,0,0,0,0,0,0,0,0,0,1.3345,1.3347,1.3495,1.3496,1.3497,1.3574,1.3575,1.3577,1.358,1.3578,1.3577,1.3576,1.3657,1.3661,1.3664,0,0,0,0,0,0,0,0,0,0,0,0,0,1.3416,1.3348,1.3495,1.3508,1.351,1.3574,1.3575,1.3577,1.358,1.3578,1.3577,1.3576,1.3656,1.366,1.3665,1.3721,0,0,1.3679,1.3681,0,0,0,0,0,0,0,0,1.3412,1.3421,1.3505,1.3507,1.3509,1.3566,1.3552,1.3625,1.358,1.3553,1.3577,1.3575,1.3628,1.3635,1.3653,1.3725,1.3729,1.3679,1.3682,1.3684,1.3685,0,0,0,0,0,0,0,1.3407,1.3418,1.3526,1.3506,1.3509,1.3509,1.3518,1.3566,1.3598,1.3555,1.3556,1.3565,1.3629,1.3649,1.3655,1.373,1.3679,1.3683,1.3686,1.3688,1.3851,1.3853,0,0,0,0,0,0,1.3399,1.3414,1.3524,1.3529,1.3456,1.3513,1.3523,1.3549,1.3597,1.3603,1.3566,1.3565,1.3642,1.365,1.3658,1.3727,1.3684,1.3688,1.3691,1.385,1.3852,1.3853,0,0,0,0,0,0,1.3396,1.3409,1.3521,1.3471,1.3486,1.3517,1.3547,1.3551,1.3571,1.3606,1.3611,1.358,1.3641,1.3651,1.3705,1.373,1.369,1.3694,1.3848,1.385,1.3853,1.3865,0,0,0,0,0,0,1.3392,1.3408,1.343,1.3472,1.3488,1.3567,1.3548,1.3554,1.3579,1.3578,1.362,1.3626,1.3641,1.3698,1.371,1.3735,1.3698,1.3846,1.3849,1.3852,1.3863,1.3868,1.3872,0,0,0,0,0,1.3386,1.3431,1.3431,1.3444,1.3517,1.3568,1.3578,1.3594,1.3581,1.3603,1.3625,1.3625,1.3725,1.3704,1.3717,1.3744,1.3844,1.3848,1.3852,1.386,1.3867,1.3872,0,0,0,0,0,0,1.3391,1.3436,1.3437,1.3497,1.3529,1.3569,1.3597,1.36,1.3636,1.3634,1.3652,1.3661,1.3715,1.3735,1.371,1.3801,1.3783,1.379,1.3786,1.3792,1.3796,1.379,1.3702,0,0,0,0,0,1.3399,1.3437,1.3475,1.3523,1.3539,1.3566,1.3589,1.3598,1.3632,1.3646,1.3672,1.3705,1.3743,1.3769,1.3807,1.3866,1.3874,1.389,1.3895,1.3899,1.3904,1.3936,1.3943,1.3865,1.3865,1.3865,0,0,1.3415,1.3445,1.3468,1.3525,1.3551,1.359,1.3577,1.3619,1.3648,1.3652,1.3704,1.3725,1.3762,1.3819,1.3845,1.3837,1.3927,1.3903,1.3906,1.3909,1.394,1.3947,1.3954,1.3868,1.3867,1.3867,0,0,1.3465,1.3492,1.3535,1.3561,1.36,1.3617,1.3628,1.3668,1.3681,1.3734,1.3737,1.3772,1.3839,1.3865,1.3888,1.3947,1.3948,1.3959,1.3983,1.4014,1.402,1.4025,1.4045,1.4053,1.3964,1.3964,1.3964,0,1.3481,1.354,1.3556,1.3598,1.3623,1.3628,1.3671,1.3696,1.3746,1.3762,1.3753,1.3836,1.3862,1.3924,1.3939,1.3957,1.3968,1.3954,1.4017,1.4023,1.4028,1.4048,1.4056,1.3965,1.3965,1.3965,1.3965,0,1.3557,1.3598,1.3627,1.3675,1.3703,1.3745,1.3768,1.3794,1.3801,1.3819,1.3872,1.3903,1.3947,1.3963,1.397,1.4026,1.4019,1.4014,1.3996,1.4037,1.4055,1.4063,1.3967,1.3966,1.3966,1.3966,0,0,1.3611,1.3667,1.3678,1.3699,1.3743,1.3775,1.3817,1.386,1.3881,1.3916,1.3951,1.4007,1.4002,1.4027,1.4037,1.4064,1.4108,1.4055,1.4056,1.4063,1.4171,1.4174,1.4182,1.4109,1.4111,1.4112,1.4167,0,1.3665,1.3741,1.3757,1.3822,1.3859,1.3865,1.3901,1.3932,1.395,1.3984,1.4004,1.4043,1.4033,1.4048,1.4075,1.4097,1.413,1.4093,1.4142,1.4143,1.4131,1.4192,1.4196,1.4247,1.4175,1.4176,1.4177,0,1.3739,1.3774,1.3843,1.3881,1.3897,1.393,1.397,1.4003,1.4037,1.4048,1.4076,1.4083,1.4127,1.4108,1.4168,1.4143,1.4163,1.4177,1.4179,1.4184,1.4162,1.4198,1.4264,1.4271,1.4189,1.4188,1.4187,0,1.377,1.3836,1.3885,1.3903,1.3949,1.3971,1.3992,1.4025,1.4049,1.4084,1.41,1.414,1.4161,1.4192,1.4209,1.4194,1.4268,1.425,1.4277,1.4277,1.4292,1.4291,1.4361,1.4307,1.4307,1.4307,1.4306,0,1.3829,1.387,1.39,1.393,1.3976,1.3994,1.4039,1.4059,1.4089,1.4122,1.413,1.4161,1.4183,1.4218,1.4232,1.4279,1.4289,1.4298,1.4301,1.4297,1.4296,1.4311,1.4307,1.4309,1.4308,1.4308,1.4307,0,1.3872,1.3893,1.3947,1.3986,1.3997,1.4029,1.4062,1.4091,1.4109,1.4152,1.4163,1.4191,1.4232,1.4253,1.4304,1.4313,1.4366,1.4367,1.4354,1.4355,1.4381,1.4378,1.4463,1.4474,1.4413,1.4413,1.4414,0,1.3907,1.3939,1.3981,1.4004,1.4025,1.4062,1.4087,1.4106,1.4131,1.4172,1.4197,1.4238,1.4272,1.4337,1.4362,1.4401,1.4402,1.443,1.4408,1.4403,1.4402,1.4399,1.4402,1.4433,1.4434,1.4434,1.4434,0,1.3967,1.3976,1.4012,1.4051,1.408,1.4112,1.4144,1.4162,1.4185,1.4214,1.4255,1.4282,1.4334,1.4374,1.4415,1.4435,1.4439,1.4441,1.4449,1.4445,1.4435,1.444,1.4363,1.4439,1.4438,1.4438,1.4438,1.4438,1.4007,1.4035,1.4069,1.4108,1.4134,1.4163,1.4192,1.4213,1.4248,1.4292,1.4301,1.4345,1.4378,1.4433,1.4455,1.4489,1.4483,1.4495,1.4498,1.4501,1.4501,1.443,1.4497,1.4497,1.4497,1.4497,1.4496,0,1.4066,1.4088,1.4124,1.4168,1.4198,1.4199,1.4234,1.4259,1.4298,1.4328,1.4361,1.4409,1.4448,1.4476,1.4516,1.4538,1.4541,1.4548,1.4546,1.4551,1.4505,1.4493,1.4545,1.4545,1.4545,1.4545,1.4545,1.4545,1.4101,1.4148,1.4161,1.4221,1.4243,1.4286,1.4306,1.4332,1.4357,1.441,1.4442,1.446,1.449,1.4532,1.4567,1.4575,1.4588,1.4596,1.4603,1.4559,1.4554,1.4549,1.4538,1.4599,1.4599,1.4645,1.4646,1.4646]},{"header":{"parameterUnit":"m.s-1","parameterCategory":1,"la1":30.2991,"la2":30.254,"lo1":-89.0895,"lo2":-89.0444,"dy":0.0017,"dx":0.0017,"nx":28,"ny":28,"refTime":"2025-05-26T21:00:00:Z","depth":0,"parameterNumber":3,"parameterNumberName":"V-component_of_WINDS"},"data":[0,0,0,0,0,0,0,0,0,0,0,0,0,0,0,0,0,0,0,0,0,0,0,0,0,0,0,0,0,0,0,0,0,0,0,0,0,0,0,0,0,0,0,0,0,0,0,0,0,0,0,0,0,0,0,0,0,0,1.998,1.9981,0,2.0064,2.0065,2.0066,2.0065,2.0064,2.0063,2.0062,2.0146,2.0149,2.0152,0,0,0,0,0,0,0,0,0,0,0,0,0,1.9817,1.982,1.998,1.9981,1.9982,2.0064,2.0065,2.0066,2.0065,2.0064,2.0063,2.0061,2.0145,2.0149,2.0153,0,0,0,0,0,0,0,0,0,0,0,0,0,1.9893,1.9821,1.998,1.9992,1.9994,2.0064,2.0065,2.0067,2.0066,2.0064,2.0062,2.0061,2.0144,2.0148,2.0153,2.0217,0,0,2.0168,2.017,0,0,0,0,0,0,0,0,1.9889,1.9899,1.9989,1.9991,1.9993,2.0053,2.0038,2.0117,2.0066,2.0038,2.0062,2.006,2.0116,2.0123,2.0143,2.0221,2.0224,2.0169,2.0172,2.0174,2.0175,0,0,0,0,0,0,0,1.9883,1.9895,2.0013,1.999,1.9993,1.9992,2.0001,2.0053,2.0085,2.0041,2.0041,2.0051,2.0117,2.0138,2.0144,2.0226,2.0169,2.0173,2.0176,2.0178,2.0359,2.036,0,0,0,0,0,0,1.9876,1.9891,2.0011,2.0016,1.9936,1.9996,2.0006,2.0035,2.0085,2.0091,2.0052,2.005,2.013,2.0139,2.0147,2.0225,2.0174,2.0178,2.0181,2.0357,2.0359,2.0361,0,0,0,0,0,0,1.9873,1.9887,2.0007,1.9954,1.9969,2.0001,2.0033,2.0038,2.0059,2.0094,2.0099,2.0068,2.0129,2.0141,2.0199,2.0227,2.0181,2.0185,2.0355,2.0357,2.036,2.038,0,0,0,0,0,0,1.9868,1.9886,1.9911,1.9954,1.9972,2.0059,2.0035,2.0041,2.0067,2.0066,2.011,2.0115,2.0129,2.0192,2.0204,2.0233,2.0189,2.0352,2.0356,2.0359,2.0377,2.0383,2.0388,0,0,0,0,0,1.9862,1.9913,1.9912,1.9926,2.0004,2.006,2.007,2.0086,2.0069,2.0095,2.0117,2.0114,2.0222,2.0198,2.0212,2.0243,2.0351,2.0355,2.0359,2.0374,2.0381,2.0388,0,0,0,0,0,0,1.9872,1.9919,1.9918,1.9985,2.0019,2.006,2.0092,2.0093,2.0132,2.0129,2.0145,2.0155,2.0214,2.0234,2.0206,2.0306,2.0284,2.0291,2.0291,2.0298,2.0304,2.0298,2.0193,0,0,0,0,0,1.9881,1.9924,1.9963,2.0017,2.0034,2.006,2.0086,2.0094,2.013,2.0144,2.017,2.0205,2.0246,2.0273,2.0314,2.0379,2.0388,2.0407,2.0413,2.0417,2.0423,2.0458,2.0467,2.0375,2.0375,2.0375,0,0,1.9902,1.9933,1.9959,2.002,2.0047,2.009,2.0073,2.0119,2.0151,2.0151,2.0208,2.0229,2.0267,2.033,2.0358,2.0348,2.045,2.0422,2.0426,2.043,2.0464,2.0472,2.048,2.0378,2.0377,2.0377,0,0,1.9962,1.999,2.0038,2.0066,2.0107,2.0124,2.0136,2.0177,2.0191,2.0248,2.0249,2.0286,2.0358,2.0386,2.0409,2.0478,2.0476,2.049,2.052,2.0554,2.0561,2.0568,2.0592,2.0601,2.0496,2.0496,2.0496,0,1.9983,2.0048,2.0063,2.011,2.0136,2.0138,2.0186,2.0212,2.0264,2.0282,2.027,2.0359,2.0386,2.0454,2.0471,2.049,2.0503,2.0486,2.0559,2.0566,2.0572,2.0595,2.0604,2.0497,2.0497,2.0497,2.0497,0,2.0071,2.0116,2.015,2.0201,2.0231,2.0278,2.0299,2.0328,2.0333,2.0351,2.0409,2.044,2.0487,2.0503,2.0509,2.0572,2.0565,2.0556,2.0534,2.0582,2.0604,2.0613,2.0499,2.0499,2.0498,2.0498,0,0,2.014,2.0198,2.021,2.0233,2.0278,2.0313,2.0359,2.0405,2.0429,2.0464,2.0503,2.0563,2.0555,2.0581,2.059,2.062,2.0672,2.0607,2.0608,2.0618,2.0742,2.0749,2.0759,2.067,2.0672,2.0674,2.0739,0,2.0205,2.0289,2.0303,2.0376,2.0418,2.0419,2.046,2.0491,2.0508,2.0545,2.0564,2.0606,2.0592,2.0608,2.0638,2.0659,2.0697,2.0654,2.0706,2.0708,2.0697,2.0771,2.0778,2.0838,2.0748,2.0749,2.075,0,2.0292,2.033,2.0407,2.0446,2.0464,2.05,2.0542,2.0578,2.0613,2.0623,2.0652,2.0657,2.0705,2.068,2.0745,2.0716,2.0738,2.0751,2.0754,2.076,2.0732,2.0778,2.0858,2.0867,2.0764,2.0763,2.0762,0,2.0335,2.0405,2.046,2.0479,2.0526,2.0551,2.0572,2.0605,2.0631,2.0668,2.0685,2.0726,2.0749,2.078,2.0796,2.0777,2.086,2.0837,2.0869,2.0869,2.0887,2.0886,2.0971,2.0901,2.0901,2.09,2.09,0,2.0406,2.0453,2.048,2.0514,2.0566,2.0581,2.0632,2.0652,2.0682,2.0719,2.0722,2.0757,2.0775,2.0812,2.0824,2.0876,2.0886,2.0895,2.0898,2.0895,2.0894,2.091,2.0906,2.0903,2.0902,2.0902,2.0901,0,2.0463,2.0483,2.0543,2.0582,2.0592,2.0629,2.0662,2.0695,2.0711,2.0758,2.077,2.0796,2.0839,2.0857,2.0911,2.0919,2.0978,2.0978,2.0967,2.0968,2.0999,2.0996,2.1098,2.1112,2.1032,2.1033,2.1033,0,2.0507,2.0543,2.0586,2.0611,2.0632,2.0673,2.07,2.0715,2.0742,2.0784,2.0812,2.0855,2.0891,2.096,2.0983,2.1024,2.1024,2.1057,2.1031,2.1026,2.1025,2.1023,2.1026,2.1063,2.1063,2.1064,2.1065,0,2.0583,2.0591,2.063,2.0671,2.0703,2.0737,2.0769,2.0789,2.081,2.084,2.0885,2.0912,2.0967,2.101,2.1051,2.1071,2.1071,2.1073,2.1082,2.108,2.1072,2.1077,2.098,2.107,2.107,2.1069,2.1069,2.1069,2.0635,2.0667,2.0702,2.0745,2.0771,2.0801,2.0833,2.0853,2.0891,2.0937,2.0943,2.0991,2.1024,2.108,2.1101,2.1138,2.113,2.1144,2.1147,2.115,2.1152,2.1066,2.1146,2.1145,2.1145,2.1145,2.1145,0,2.0712,2.0734,2.0773,2.0818,2.0851,2.0848,2.0884,2.0911,2.0954,2.0984,2.1019,2.107,2.1111,2.1137,2.1179,2.1203,2.1204,2.1213,2.1212,2.1216,2.1158,2.1145,2.1212,2.1212,2.1212,2.1212,2.1212,2.1212,2.0755,2.0809,2.0821,2.0887,2.0909,2.0956,2.0976,2.1004,2.1028,2.1085,2.112,2.1136,2.1165,2.1208,2.1245,2.1252,2.1267,2.1277,2.1283,2.1228,2.1221,2.1214,2.1202,2.128,2.128,2.1338,2.1339,2.1339]}]]